TIME,�t�@���q�[�^�m���b�g���n,�t���O,�t�@���q�[�^�mMJ�n,�t���O
2004/4/1 0:00,0,0,0,0
2004/4/1 0:15,0,0,0,0
2004/4/1 0:30,0,0,0,0
2004/4/1 0:45,0,0,0,0
2004/4/1 1:00,0,0,0,0
2004/4/1 1:15,0,0,0,0
2004/4/1 1:30,0,0,0,0
2004/4/1 1:45,0,0,0,0
2004/4/1 2:00,0,0,0,0
2004/4/1 2:15,0,0,0,0
2004/4/1 2:30,0,0,0,0
2004/4/1 2:45,0,0,0,0
2004/4/1 3:00,0,0,0,0
2004/4/1 3:15,0,0,0,0
2004/4/1 3:30,0,0,0,0
2004/4/1 3:45,0,0,0,0
2004/4/1 4:00,0,0,0,0
2004/4/1 4:15,0,0,0,0
2004/4/1 4:30,0,0,0,0
2004/4/1 4:45,0,0,0,0
2004/4/1 5:00,0,0,0,0
2004/4/1 5:15,0,0,0,0
2004/4/1 5:30,0,0,0,0
2004/4/1 5:45,0,0,0,0
2004/4/1 6:00,9.22E-05,0,11.28,0
2004/4/1 6:15,6.84E-05,0,8.37,0
2004/4/1 6:30,0.00003198,0,3.91,0
2004/4/1 6:45,0.000021645,0,2.64,0
2004/4/1 7:00,0.00004407,0,1.76,0
2004/4/1 7:15,0,0,0,0
2004/4/1 7:30,0,0,0,0
2004/4/1 7:45,0,0,0,0
2004/4/1 8:00,0,0,0,0
2004/4/1 8:15,0,0,0,0
2004/4/1 8:30,0,0,0,0
2004/4/1 8:45,0,0,0,0
2004/4/1 9:00,0,0,0,0
2004/4/1 9:15,0,0,0,0
2004/4/1 9:30,0,0,0,0
2004/4/1 9:45,0,0,0,0
2004/4/1 10:00,0,0,0,0
2004/4/1 10:15,0,0,0,0
2004/4/1 10:30,0,0,0,0
2004/4/1 10:45,0,0,0,0
2004/4/1 11:00,0,0,0,0
2004/4/1 11:15,0,0,0,0
2004/4/1 11:30,0,0,0,0
2004/4/1 11:45,0,0,0,0
2004/4/1 12:00,0,0,0,0
2004/4/1 12:15,0,0,0,0
2004/4/1 12:30,0,0,0,0
2004/4/1 12:45,0,0,0,0
2004/4/1 13:00,0,0,0,0
2004/4/1 13:15,0,0,0,0
2004/4/1 13:30,0,0,0,0
2004/4/1 13:45,0,0,0,0
2004/4/1 14:00,0,0,0,0
2004/4/1 14:15,0,0,0,0
2004/4/1 14:30,0,0,0,0
2004/4/1 14:45,0,0,0,0
2004/4/1 15:00,0,0,0,0
2004/4/1 15:15,0,0,0,0
2004/4/1 15:30,0,0,0,0
2004/4/1 15:45,0,0,0,0
2004/4/1 16:00,0,0,0,0
2004/4/1 16:15,0,0,0,0
2004/4/1 16:30,0,0,0,0
2004/4/1 16:45,0,0,0,0
2004/4/1 17:00,0,0,0,0
2004/4/1 17:15,0,0,0,0
2004/4/1 17:30,0,0,0,0
2004/4/1 17:45,0,0,0,0
2004/4/1 18:00,0,0,0,0
2004/4/1 18:15,0,0,0,0
2004/4/1 18:30,0,0,0,0
2004/4/1 18:45,0,0,0,0
2004/4/1 19:00,0,0,0,0
2004/4/1 19:15,0,0,0,0
2004/4/1 19:30,0,0,0,0
2004/4/1 19:45,0,0,0,0
2004/4/1 20:00,0,0,0,0
2004/4/1 20:15,0,0,0,0
2004/4/1 20:30,0,0,0,0
2004/4/1 20:45,0,0,0,0
2004/4/1 21:00,0,0,0,0
2004/4/1 21:15,0,0,0,0
2004/4/1 21:30,0,0,0,0
2004/4/1 21:45,0,0,0,0
2004/4/1 22:00,0,0,0,0
2004/4/1 22:15,0,0,0,0
2004/4/1 22:30,0,0,0,0
2004/4/1 22:45,0,0,0,0
2004/4/1 23:00,0,0,0,0
2004/4/1 23:15,0,0,0,0
2004/4/1 23:30,0,0,0,0
2004/4/1 23:45,0,0,0,0
2004/4/2 0:00,0,0,0,0
2004/4/2 0:15,0,0,0,0
2004/4/2 0:30,0,0,0,0
2004/4/2 0:45,0,0,0,0
2004/4/2 1:00,0,0,0,0
2004/4/2 1:15,0,0,0,0
2004/4/2 1:30,0,0,0,0
2004/4/2 1:45,0,0,0,0
2004/4/2 2:00,0,0,0,0
2004/4/2 2:15,0,0,0,0
2004/4/2 2:30,0,0,0,0
2004/4/2 2:45,0,0,0,0
2004/4/2 3:00,0,0,0,0
2004/4/2 3:15,0,0,0,0
2004/4/2 3:30,0,0,0,0
2004/4/2 3:45,0,0,0,0
2004/4/2 4:00,0,0,0,0
2004/4/2 4:15,0.000017355,0,2.12,0
2004/4/2 4:30,9.05E-05,0,11.08,0
2004/4/2 4:45,0.000070785,0,8.66,0
2004/4/2 5:00,4.59E-05,0,5.61,0
2004/4/2 5:15,3.71E-05,0,4.54,0
2004/4/2 5:30,0.000021645,0,2.65,0
2004/4/2 5:45,0.000024765,0,3.03,0
2004/4/2 6:00,2.28E-05,0,2.79,0
2004/4/2 6:15,2.17E-05,0,2.66,0
2004/4/2 6:30,2.17E-05,0,2.65,0
2004/4/2 6:45,0.000021645,0,2.64,0
2004/4/2 7:00,3.34E-05,0,0,0
2004/4/2 7:15,0,0,0,0
2004/4/2 7:30,0,0,0,0
2004/4/2 7:45,0,0,0,0
2004/4/2 8:00,0,0,0,0
2004/4/2 8:15,0,0,0,0
2004/4/2 8:30,0,0,0,0
2004/4/2 8:45,0,0,0,0
2004/4/2 9:00,0,0,0,0
2004/4/2 9:15,0,0,0,0
2004/4/2 9:30,0,0,0,0
2004/4/2 9:45,0,0,0,0
2004/4/2 10:00,0,0,0,0
2004/4/2 10:15,0,0,0,0
2004/4/2 10:30,0,0,0,0
2004/4/2 10:45,0,0,0,0
2004/4/2 11:00,0,0,0,0
2004/4/2 11:15,0,0,0,0
2004/4/2 11:30,0,0,0,0
2004/4/2 11:45,0,0,0,0
2004/4/2 12:00,0,0,0,0
2004/4/2 12:15,0,0,0,0
2004/4/2 12:30,0,0,0,0
2004/4/2 12:45,0,0,0,0
2004/4/2 13:00,0,0,0,0
2004/4/2 13:15,0,0,0,0
2004/4/2 13:30,0,0,0,0
2004/4/2 13:45,0,0,0,0
2004/4/2 14:00,0,0,0,0
2004/4/2 14:15,0,0,0,0
2004/4/2 14:30,0,0,0,0
2004/4/2 14:45,0,0,0,0
2004/4/2 15:00,0,0,0,0
2004/4/2 15:15,0,0,0,0
2004/4/2 15:30,0,0,0,0
2004/4/2 15:45,0,0,0,0
2004/4/2 16:00,0,0,0,0
2004/4/2 16:15,0,0,0,0
2004/4/2 16:30,0,0,0,0
2004/4/2 16:45,0,0,0,0
2004/4/2 17:00,0,0,0,0
2004/4/2 17:15,0,0,0,0
2004/4/2 17:30,0,0,0,0
2004/4/2 17:45,0,0,0,0
2004/4/2 18:00,0,0,0,0
2004/4/2 18:15,0,0,0,0
2004/4/2 18:30,0,0,0,0
2004/4/2 18:45,0,0,0,0
2004/4/2 19:00,0,0,0,0
2004/4/2 19:15,0,0,0,0
2004/4/2 19:30,0,0,0,0
2004/4/2 19:45,0,0,0,0
2004/4/2 20:00,0,0,0,0
2004/4/2 20:15,0,0,0,0
2004/4/2 20:30,0,0,0,0
2004/4/2 20:45,0,0,0,0
2004/4/2 21:00,0,0,0,0
2004/4/2 21:15,0,0,0,0
2004/4/2 21:30,0,0,0,0
2004/4/2 21:45,0,0,0,0
2004/4/2 22:00,0,0,0,0
2004/4/2 22:15,0,0,0,0
2004/4/2 22:30,0,0,0,0
2004/4/2 22:45,0,0,0,0
2004/4/2 23:00,0,0,0,0
2004/4/2 23:15,0,0,0,0
2004/4/2 23:30,0,0,0,0
2004/4/2 23:45,0,0,0,0
2004/4/3 0:00,0,0,0,0
2004/4/3 0:15,0,0,0,0
2004/4/3 0:30,0,0,0,0
2004/4/3 0:45,0,0,0,0
2004/4/3 1:00,0,0,0,0
2004/4/3 1:15,0,0,0,0
2004/4/3 1:30,0,0,0,0
2004/4/3 1:45,0,0,0,0
2004/4/3 2:00,0,0,0,0
2004/4/3 2:15,0,0,0,0
2004/4/3 2:30,0,0,0,0
2004/4/3 2:45,0,0,0,0
2004/4/3 3:00,0,0,0,0
2004/4/3 3:15,0,0,0,0
2004/4/3 3:30,0,0,0,0
2004/4/3 3:45,0,0,0,0
2004/4/3 4:00,0,0,0,0
2004/4/3 4:15,0,0,0,0
2004/4/3 4:30,0,0,0,0
2004/4/3 4:45,0,0,0,0
2004/4/3 5:00,0,0,0,0
2004/4/3 5:15,0,0,0,0
2004/4/3 5:30,0,0,0,0
2004/4/3 5:45,0,0,0,0
2004/4/3 6:00,4.87E-05,0,5.96,0
2004/4/3 6:15,9.55E-05,0,11.68,0
2004/4/3 6:30,9.33E-05,0,11.42,0
2004/4/3 6:45,8.05E-05,0,9.84,0
2004/4/3 7:00,5.46E-05,0,1.63,0
2004/4/3 7:15,0,0,0,0
2004/4/3 7:30,0,0,0,0
2004/4/3 7:45,0,0,0,0
2004/4/3 8:00,0,0,0,0
2004/4/3 8:15,0,0,0,0
2004/4/3 8:30,0,0,0,0
2004/4/3 8:45,0,0,0,0
2004/4/3 9:00,0,0,0,0
2004/4/3 9:15,0,0,0,0
2004/4/3 9:30,1.12E-06,0,0.12,0
2004/4/3 9:45,4.22E-05,0,0.74,0
2004/4/3 10:00,0,0,0,0
2004/4/3 10:15,0,0,0,0
2004/4/3 10:30,0,0,0,0
2004/4/3 10:45,2.06E-05,0,2.52,0
2004/4/3 11:00,6.34E-05,0,7.76,0
2004/4/3 11:15,5.21E-05,0,6.38,0
2004/4/3 11:30,0.000028665,0,3.5,0
2004/4/3 11:45,3.07E-05,0,3.75,0
2004/4/3 12:00,2.29E-05,0,2.8,0
2004/4/3 12:15,3.13E-05,0,3.83,0
2004/4/3 12:30,2.98E-05,0,3.64,0
2004/4/3 12:45,2.92E-05,0,3.57,0
2004/4/3 13:00,5.06E-05,0,2.59,0
2004/4/3 13:15,0,0,0,0
2004/4/3 13:30,0,0,0,0
2004/4/3 13:45,0,0,0,0
2004/4/3 14:00,0.000031005,0,3.79,0
2004/4/3 14:15,6.98E-05,0,8.53,0
2004/4/3 14:30,6.19E-05,0,7.57,0
2004/4/3 14:45,0.000021645,0,2.64,0
2004/4/3 15:00,2.16E-05,0,2.64,0
2004/4/3 15:15,0.000021645,0,2.64,0
2004/4/3 15:30,0.000021645,0,2.64,0
2004/4/3 15:45,0.000021645,0,2.64,0
2004/4/3 16:00,0.000021645,0,2.64,0
2004/4/3 16:15,0.000021645,0,2.64,0
2004/4/3 16:30,0.000021645,0,2.64,0
2004/4/3 16:45,0.000021645,0,2.64,0
2004/4/3 17:00,3.66E-05,0,0.88,0
2004/4/3 17:15,1.65E-05,0,2.02,0
2004/4/3 17:30,0.000021645,0,2.64,0
2004/4/3 17:45,0.000021645,0,2.64,0
2004/4/3 18:00,0.000021645,0,2.64,0
2004/4/3 18:15,0.000021645,0,2.64,0
2004/4/3 18:30,0.000021645,0,2.64,0
2004/4/3 18:45,0.000021645,0,2.64,0
2004/4/3 19:00,0.000032955,0,0,0
2004/4/3 19:15,0,0,0,0
2004/4/3 19:30,0,0,0,0
2004/4/3 19:45,0,0,0,0
2004/4/3 20:00,0,0,0,0
2004/4/3 20:15,0,0,0,0
2004/4/3 20:30,0,0,0,0
2004/4/3 20:45,0,0,0,0
2004/4/3 21:00,0,0,0,0
2004/4/3 21:15,0,0,0,0
2004/4/3 21:30,0,0,0,0
2004/4/3 21:45,0,0,0,0
2004/4/3 22:00,0,0,0,0
2004/4/3 22:15,0,0,0,0
2004/4/3 22:30,0,0,0,0
2004/4/3 22:45,0,0,0,0
2004/4/3 23:00,0,0,0,0
2004/4/3 23:15,0,0,0,0
2004/4/3 23:30,0,0,0,0
2004/4/3 23:45,0,0,0,0
2004/4/4 0:00,0,0,0,0
2004/4/4 0:15,0,0,0,0
2004/4/4 0:30,0,0,0,0
2004/4/4 0:45,0,0,0,0
2004/4/4 1:00,0,0,0,0
2004/4/4 1:15,0,0,0,0
2004/4/4 1:30,0,0,0,0
2004/4/4 1:45,0,0,0,0
2004/4/4 2:00,0,0,0,0
2004/4/4 2:15,0,0,0,0
2004/4/4 2:30,0,0,0,0
2004/4/4 2:45,0,0,0,0
2004/4/4 3:00,0,0,0,0
2004/4/4 3:15,0,0,0,0
2004/4/4 3:30,0,0,0,0
2004/4/4 3:45,0,0,0,0
2004/4/4 4:00,2.68E-05,0,3.28,0
2004/4/4 4:15,0.000047385,0,5.8,0
2004/4/4 4:30,4.24E-05,0,5.18,0
2004/4/4 4:45,0.000021645,0,2.65,0
2004/4/4 5:00,0.000021645,0,2.65,0
2004/4/4 5:15,0.000021645,0,2.65,0
2004/4/4 5:30,0.000021645,0,2.65,0
2004/4/4 5:45,2.52E-05,0,3.08,0
2004/4/4 6:00,0.000021645,0,2.65,0
2004/4/4 6:15,3.38E-05,0,0,0
2004/4/4 6:30,0,0,0,0
2004/4/4 6:45,0,0,0,0
2004/4/4 7:00,0,0,0,0
2004/4/4 7:15,0,0,0,0
2004/4/4 7:30,0,0,0,0
2004/4/4 7:45,0,0,0,0
2004/4/4 8:00,0,0,0,0
2004/4/4 8:15,0.00002262,0,2.77,0
2004/4/4 8:30,3.53E-05,0,4.33,0
2004/4/4 8:45,2.83E-05,0,3.46,0
2004/4/4 9:00,2.70E-05,0,3.3,0
2004/4/4 9:15,0.000021645,0,2.65,0
2004/4/4 9:30,0.000021645,0,2.65,0
2004/4/4 9:45,0.000021645,0,2.65,0
2004/4/4 10:00,0.000021645,0,2.65,0
2004/4/4 10:15,3.95E-05,0,0.88,0
2004/4/4 10:30,0,0,0,0
2004/4/4 10:45,5.90E-06,0,0.72,0
2004/4/4 11:00,4.73E-05,0,5.79,0
2004/4/4 11:15,2.24E-05,0,2.74,0
2004/4/4 11:30,0.000021645,0,2.64,0
2004/4/4 11:45,0.000021645,0,2.64,0
2004/4/4 12:00,0.000021645,0,2.64,0
2004/4/4 12:15,2.16E-05,0,2.64,0
2004/4/4 12:30,4.28E-05,0,0.88,0
2004/4/4 12:45,0,0,0,0
2004/4/4 13:00,0,0,0,0
2004/4/4 13:15,0,0,0,0
2004/4/4 13:30,0,0,0,0
2004/4/4 13:45,0,0,0,0
2004/4/4 14:00,0,0,0,0
2004/4/4 14:15,0,0,0,0
2004/4/4 14:30,3.19E-05,0,3.9,0
2004/4/4 14:45,0.000021645,0,2.65,0
2004/4/4 15:00,0.000021645,0,2.64,0
2004/4/4 15:15,0.000021645,0,2.64,0
2004/4/4 15:30,0.000021645,0,2.64,0
2004/4/4 15:45,0.000021645,0,2.65,0
2004/4/4 16:00,2.17E-05,0,2.65,0
2004/4/4 16:15,3.99E-05,0,0.88,0
2004/4/4 16:30,0,0,0,0
2004/4/4 16:45,0,0,0,0
2004/4/4 17:00,0,0,0,0
2004/4/4 17:15,0,0,0,0
2004/4/4 17:30,0,0,0,0
2004/4/4 17:45,0,0,0,0
2004/4/4 18:00,0,0,0,0
2004/4/4 18:15,3.09E-05,0,3.78,0
2004/4/4 18:30,4.27E-05,0,0.88,0
2004/4/4 18:45,0,0,0,0
2004/4/4 19:00,0,0,0,0
2004/4/4 19:15,0,0,0,0
2004/4/4 19:30,0,0,0,0
2004/4/4 19:45,0,0,0,0
2004/4/4 20:00,0,0,0,0
2004/4/4 20:15,5.12E-05,0,6.26,0
2004/4/4 20:30,0.000045825,0,5.6,0
2004/4/4 20:45,5.07E-05,0,1.77,0
2004/4/4 21:00,0,0,0,0
2004/4/4 21:15,0,0,0,0
2004/4/4 21:30,0,0,0,0
2004/4/4 21:45,0,0,0,0
2004/4/4 22:00,0,0,0,0
2004/4/4 22:15,0,0,0,0
2004/4/4 22:30,0,0,0,0
2004/4/4 22:45,0,0,0,0
2004/4/4 23:00,0,0,0,0
2004/4/4 23:15,0,0,0,0
2004/4/4 23:30,0,0,0,0
2004/4/4 23:45,0,0,0,0
2004/4/5 0:00,0,0,0,0
2004/4/5 0:15,0,0,0,0
2004/4/5 0:30,0,0,0,0
2004/4/5 0:45,0,0,0,0
2004/4/5 1:00,0,0,0,0
2004/4/5 1:15,0,0,0,0
2004/4/5 1:30,0,0,0,0
2004/4/5 1:45,0,0,0,0
2004/4/5 2:00,0,0,0,0
2004/4/5 2:15,0,0,0,0
2004/4/5 2:30,0,0,0,0
2004/4/5 2:45,0,0,0,0
2004/4/5 3:00,0,0,0,0
2004/4/5 3:15,0,0,0,0
2004/4/5 3:30,0,0,0,0
2004/4/5 3:45,0,0,0,0
2004/4/5 4:00,0,0,0,0
2004/4/5 4:15,0,0,0,0
2004/4/5 4:30,9.25E-05,0,11.32,0
2004/4/5 4:45,7.15E-05,0,8.75,0
2004/4/5 5:00,0.000057915,0,7.09,0
2004/4/5 5:15,4.53E-05,0,5.54,0
2004/4/5 5:30,3.01E-05,0,3.68,0
2004/4/5 5:45,0.00002808,0,3.44,0
2004/4/5 6:00,3.56E-05,0,4.36,0
2004/4/5 6:15,2.73E-05,0,3.34,0
2004/4/5 6:30,2.74E-05,0,3.35,0
2004/4/5 6:45,3.20E-05,0,0,0
2004/4/5 7:00,0,0,0,0
2004/4/5 7:15,0,0,0,0
2004/4/5 7:30,0,0,0,0
2004/4/5 7:45,0.00000039,0,0,0
2004/4/5 8:00,0,0,0,0
2004/4/5 8:15,0,0,0,0
2004/4/5 8:30,0,0,0,0
2004/4/5 8:45,0,0,0,0
2004/4/5 9:00,0,0,0,0
2004/4/5 9:15,0,0,0,0
2004/4/5 9:30,0,0,0,0
2004/4/5 9:45,0,0,0,0
2004/4/5 10:00,0,0,0,0
2004/4/5 10:15,0,0,0,0
2004/4/5 10:30,0,0,0,0
2004/4/5 10:45,0,0,0,0
2004/4/5 11:00,0,0,0,0
2004/4/5 11:15,0,0,0,0
2004/4/5 11:30,0,0,0,0
2004/4/5 11:45,0,0,0,0
2004/4/5 12:00,0,0,0,0
2004/4/5 12:15,0,0,0,0
2004/4/5 12:30,0,0,0,0
2004/4/5 12:45,0,0,0,0
2004/4/5 13:00,0,0,0,0
2004/4/5 13:15,0,0,0,0
2004/4/5 13:30,0,0,0,0
2004/4/5 13:45,0,0,0,0
2004/4/5 14:00,0,0,0,0
2004/4/5 14:15,0,0,0,0
2004/4/5 14:30,0,0,0,0
2004/4/5 14:45,0,0,0,0
2004/4/5 15:00,0,0,0,0
2004/4/5 15:15,0,0,0,0
2004/4/5 15:30,0,0,0,0
2004/4/5 15:45,0,0,0,0
2004/4/5 16:00,0,0,0,0
2004/4/5 16:15,0,0,0,0
2004/4/5 16:30,0,0,0,0
2004/4/5 16:45,0,0,0,0
2004/4/5 17:00,0,0,0,0
2004/4/5 17:15,0,0,0,0
2004/4/5 17:30,0,0,0,0
2004/4/5 17:45,0,0,0,0
2004/4/5 18:00,0,0,0,0
2004/4/5 18:15,0,0,0,0
2004/4/5 18:30,0,0,0,0
2004/4/5 18:45,0,0,0,0
2004/4/5 19:00,0,0,0,0
2004/4/5 19:15,0,0,0,0
2004/4/5 19:30,0,0,0,0
2004/4/5 19:45,0,0,0,0
2004/4/5 20:00,0,0,0,0
2004/4/5 20:15,0,0,0,0
2004/4/5 20:30,0,0,0,0
2004/4/5 20:45,0,0,0,0
2004/4/5 21:00,0,0,0,0
2004/4/5 21:15,0,0,0,0
2004/4/5 21:30,0,0,0,0
2004/4/5 21:45,0,0,0,0
2004/4/5 22:00,0,0,0,0
2004/4/5 22:15,0,0,0,0
2004/4/5 22:30,0,0,0,0
2004/4/5 22:45,0,0,0,0
2004/4/5 23:00,0,0,0,0
2004/4/5 23:15,0,0,0,0
2004/4/5 23:30,0,0,0,0
2004/4/5 23:45,0,0,0,0
2004/4/6 0:00,0,0,0,0
2004/4/6 0:15,0,0,0,0
2004/4/6 0:30,0,0,0,0
2004/4/6 0:45,0,0,0,0
2004/4/6 1:00,0,0,0,0
2004/4/6 1:15,0,0,0,0
2004/4/6 1:30,0,0,0,0
2004/4/6 1:45,0,0,0,0
2004/4/6 2:00,0,0,0,0
2004/4/6 2:15,0,0,0,0
2004/4/6 2:30,0,0,0,0
2004/4/6 2:45,0,0,0,0
2004/4/6 3:00,0,0,0,0
2004/4/6 3:15,0,0,0,0
2004/4/6 3:30,0,0,0,0
2004/4/6 3:45,0,0,0,0
2004/4/6 4:00,0,0,0,0
2004/4/6 4:15,0,0,0,0
2004/4/6 4:30,0,0,0,0
2004/4/6 4:45,0,0,0,0
2004/4/6 5:00,0,0,0,0
2004/4/6 5:15,0,0,0,0
2004/4/6 5:30,4.05E-05,0,4.96,0
2004/4/6 5:45,9.95E-05,0,12.18,0
2004/4/6 6:00,9.61E-05,0,11.76,0
2004/4/6 6:15,8.05E-05,0,9.85,0
2004/4/6 6:30,5.71E-05,0,6.98,0
2004/4/6 6:45,0.00002769,0,0,0
2004/4/6 7:00,0,0,0,0
2004/4/6 7:15,0,0,0,0
2004/4/6 7:30,0,0,0,0
2004/4/6 7:45,0,0,0,0
2004/4/6 8:00,0,0,0,0
2004/4/6 8:15,0,0,0,0
2004/4/6 8:30,0,0,0,0
2004/4/6 8:45,0,0,0,0
2004/4/6 9:00,0,0,0,0
2004/4/6 9:15,0,0,0,0
2004/4/6 9:30,0,0,0,0
2004/4/6 9:45,0,0,0,0
2004/4/6 10:00,0,0,0,0
2004/4/6 10:15,0,0,0,0
2004/4/6 10:30,0,0,0,0
2004/4/6 10:45,0,0,0,0
2004/4/6 11:00,0,0,0,0
2004/4/6 11:15,0,0,0,0
2004/4/6 11:30,0,0,0,0
2004/4/6 11:45,0,0,0,0
2004/4/6 12:00,0,0,0,0
2004/4/6 12:15,0,0,0,0
2004/4/6 12:30,0,0,0,0
2004/4/6 12:45,0,0,0,0
2004/4/6 13:00,0,0,0,0
2004/4/6 13:15,0,0,0,0
2004/4/6 13:30,0,0,0,0
2004/4/6 13:45,0,0,0,0
2004/4/6 14:00,0,0,0,0
2004/4/6 14:15,0,0,0,0
2004/4/6 14:30,0,0,0,0
2004/4/6 14:45,0,0,0,0
2004/4/6 15:00,0,0,0,0
2004/4/6 15:15,0,0,0,0
2004/4/6 15:30,0,0,0,0
2004/4/6 15:45,0,0,0,0
2004/4/6 16:00,0,0,0,0
2004/4/6 16:15,0,0,0,0
2004/4/6 16:30,0,0,0,0
2004/4/6 16:45,0,0,0,0
2004/4/6 17:00,0,0,0,0
2004/4/6 17:15,0,0,0,0
2004/4/6 17:30,0,0,0,0
2004/4/6 17:45,0,0,0,0
2004/4/6 18:00,0,0,0,0
2004/4/6 18:15,0,0,0,0
2004/4/6 18:30,0,0,0,0
2004/4/6 18:45,0,0,0,0
2004/4/6 19:00,0,0,0,0
2004/4/6 19:15,0,0,0,0
2004/4/6 19:30,0,0,0,0
2004/4/6 19:45,0,0,0,0
2004/4/6 20:00,0,0,0,0
2004/4/6 20:15,0,0,0,0
2004/4/6 20:30,0,0,0,0
2004/4/6 20:45,0,0,0,0
2004/4/6 21:00,0,0,0,0
2004/4/6 21:15,0,0,0,0
2004/4/6 21:30,0,0,0,0
2004/4/6 21:45,0,0,0,0
2004/4/6 22:00,0,0,0,0
2004/4/6 22:15,0,0,0,0
2004/4/6 22:30,0,0,0,0
2004/4/6 22:45,0,0,0,0
2004/4/6 23:00,0,0,0,0
2004/4/6 23:15,0,0,0,0
2004/4/6 23:30,0,0,0,0
2004/4/6 23:45,0,0,0,0
2004/4/7 0:00,0,0,0,0
2004/4/7 0:15,0,0,0,0
2004/4/7 0:30,0,0,0,0
2004/4/7 0:45,0,0,0,0
2004/4/7 1:00,0,0,0,0
2004/4/7 1:15,0,0,0,0
2004/4/7 1:30,0,0,0,0
2004/4/7 1:45,0,0,0,0
2004/4/7 2:00,0,0,0,0
2004/4/7 2:15,0,0,0,0
2004/4/7 2:30,0,0,0,0
2004/4/7 2:45,0,0,0,0
2004/4/7 3:00,0,0,0,0
2004/4/7 3:15,0,0,0,0
2004/4/7 3:30,0,0,0,0
2004/4/7 3:45,0,0,0,0
2004/4/7 4:00,0,0,0,0
2004/4/7 4:15,0,0,0,0
2004/4/7 4:30,0,0,0,0
2004/4/7 4:45,0,0,0,0
2004/4/7 5:00,0,0,0,0
2004/4/7 5:15,0,0,0,0
2004/4/7 5:30,0,0,0,0
2004/4/7 5:45,0.00000546,0,0.67,0
2004/4/7 6:00,7.74E-05,0,9.47,0
2004/4/7 6:15,5.06E-05,0,6.19,0
2004/4/7 6:30,2.84E-05,0,3.47,0
2004/4/7 6:45,4.18E-05,0,0.88,0
2004/4/7 7:00,0,0,0,0
2004/4/7 7:15,0,0,0,0
2004/4/7 7:30,0,0,0,0
2004/4/7 7:45,0,0,0,0
2004/4/7 8:00,0,0,0,0
2004/4/7 8:15,0,0,0,0
2004/4/7 8:30,0,0,0,0
2004/4/7 8:45,0,0,0,0
2004/4/7 9:00,0,0,0,0
2004/4/7 9:15,0,0,0,0
2004/4/7 9:30,0,0,0,0
2004/4/7 9:45,0,0,0,0
2004/4/7 10:00,0,0,0,0
2004/4/7 10:15,0,0,0,0
2004/4/7 10:30,0,0,0,0
2004/4/7 10:45,0,0,0,0
2004/4/7 11:00,0,0,0,0
2004/4/7 11:15,0,0,0,0
2004/4/7 11:30,0,0,0,0
2004/4/7 11:45,0,0,0,0
2004/4/7 12:00,0,0,0,0
2004/4/7 12:15,0,0,0,0
2004/4/7 12:30,0,0,0,0
2004/4/7 12:45,0,0,0,0
2004/4/7 13:00,0,0,0,0
2004/4/7 13:15,0,0,0,0
2004/4/7 13:30,0,0,0,0
2004/4/7 13:45,0,0,0,0
2004/4/7 14:00,0,0,0,0
2004/4/7 14:15,0,0,0,0
2004/4/7 14:30,0,0,0,0
2004/4/7 14:45,0,0,0,0
2004/4/7 15:00,0,0,0,0
2004/4/7 15:15,0,0,0,0
2004/4/7 15:30,0,0,0,0
2004/4/7 15:45,0,0,0,0
2004/4/7 16:00,0,0,0,0
2004/4/7 16:15,0,0,0,0
2004/4/7 16:30,0,0,0,0
2004/4/7 16:45,0,0,0,0
2004/4/7 17:00,0,0,0,0
2004/4/7 17:15,0,0,0,0
2004/4/7 17:30,0,0,0,0
2004/4/7 17:45,0,0,0,0
2004/4/7 18:00,0,0,0,0
2004/4/7 18:15,0,0,0,0
2004/4/7 18:30,0,0,0,0
2004/4/7 18:45,0,0,0,0
2004/4/7 19:00,0,0,0,0
2004/4/7 19:15,0,0,0,0
2004/4/7 19:30,0,0,0,0
2004/4/7 19:45,0,0,0,0
2004/4/7 20:00,0,0,0,0
2004/4/7 20:15,0,0,0,0
2004/4/7 20:30,0,0,0,0
2004/4/7 20:45,0,0,0,0
2004/4/7 21:00,2.51E-05,0,3.07,0
2004/4/7 21:15,0.000052065,0,6.37,0
2004/4/7 21:30,4.45E-05,0,0,0
2004/4/7 21:45,0,0,0,0
2004/4/7 22:00,0,0,0,0
2004/4/7 22:15,0,0,0,0
2004/4/7 22:30,0,0,0,0
2004/4/7 22:45,0,0,0,0
2004/4/7 23:00,0,0,0,0
2004/4/7 23:15,0,0,0,0
2004/4/7 23:30,0,0,0,0
2004/4/7 23:45,0,0,0,0
2004/4/8 0:00,0,0,0,0
2004/4/8 0:15,0,0,0,0
2004/4/8 0:30,0,0,0,0
2004/4/8 0:45,0,0,0,0
2004/4/8 1:00,0,0,0,0
2004/4/8 1:15,0,0,0,0
2004/4/8 1:30,0,0,0,0
2004/4/8 1:45,0,0,0,0
2004/4/8 2:00,0,0,0,0
2004/4/8 2:15,0,0,0,0
2004/4/8 2:30,0,0,0,0
2004/4/8 2:45,0,0,0,0
2004/4/8 3:00,0,0,0,0
2004/4/8 3:15,0,0,0,0
2004/4/8 3:30,0,0,0,0
2004/4/8 3:45,0,0,0,0
2004/4/8 4:00,0,0,0,0
2004/4/8 4:15,0,0,0,0
2004/4/8 4:30,0,0,0,0
2004/4/8 4:45,0,0,0,0
2004/4/8 5:00,4.17E-05,0,5.1,0
2004/4/8 5:15,8.85E-05,0,10.83,0
2004/4/8 5:30,6.66E-05,0,8.15,0
2004/4/8 5:45,6.22E-05,0,7.61,0
2004/4/8 6:00,8.96E-05,0,10.96,0
2004/4/8 6:15,8.69E-05,0,10.63,0
2004/4/8 6:30,7.63E-05,0,9.33,0
2004/4/8 6:45,0.000044655,0,0,0
2004/4/8 7:00,0,0,0,0
2004/4/8 7:15,0,0,0,0
2004/4/8 7:30,0,0,0,0
2004/4/8 7:45,0,0,0,0
2004/4/8 8:00,0,0,0,0
2004/4/8 8:15,0,0,0,0
2004/4/8 8:30,0,0,0,0
2004/4/8 8:45,0,0,0,0
2004/4/8 9:00,0,0,0,0
2004/4/8 9:15,0,0,0,0
2004/4/8 9:30,0,0,0,0
2004/4/8 9:45,0,0,0,0
2004/4/8 10:00,0,0,0,0
2004/4/8 10:15,0,0,0,0
2004/4/8 10:30,0,0,0,0
2004/4/8 10:45,0,0,0,0
2004/4/8 11:00,0,0,0,0
2004/4/8 11:15,0,0,0,0
2004/4/8 11:30,0,0,0,0
2004/4/8 11:45,0,0,0,0
2004/4/8 12:00,0,0,0,0
2004/4/8 12:15,0,0,0,0
2004/4/8 12:30,0,0,0,0
2004/4/8 12:45,0,0,0,0
2004/4/8 13:00,0,0,0,0
2004/4/8 13:15,0,0,0,0
2004/4/8 13:30,0,0,0,0
2004/4/8 13:45,0,0,0,0
2004/4/8 14:00,0,0,0,0
2004/4/8 14:15,0,0,0,0
2004/4/8 14:30,0,0,0,0
2004/4/8 14:45,0,0,0,0
2004/4/8 15:00,0,0,0,0
2004/4/8 15:15,0,0,0,0
2004/4/8 15:30,0,0,0,0
2004/4/8 15:45,0,0,0,0
2004/4/8 16:00,0,0,0,0
2004/4/8 16:15,0,0,0,0
2004/4/8 16:30,0,0,0,0
2004/4/8 16:45,0,0,0,0
2004/4/8 17:00,0,0,0,0
2004/4/8 17:15,0,0,0,0
2004/4/8 17:30,0,0,0,0
2004/4/8 17:45,0,0,0,0
2004/4/8 18:00,0,0,0,0
2004/4/8 18:15,0,0,0,0
2004/4/8 18:30,0,0,0,0
2004/4/8 18:45,0,0,0,0
2004/4/8 19:00,0,0,0,0
2004/4/8 19:15,0,0,0,0
2004/4/8 19:30,0,0,0,0
2004/4/8 19:45,0,0,0,0
2004/4/8 20:00,0,0,0,0
2004/4/8 20:15,0,0,0,0
2004/4/8 20:30,0,0,0,0
2004/4/8 20:45,0,0,0,0
2004/4/8 21:00,0,0,0,0
2004/4/8 21:15,0,0,0,0
2004/4/8 21:30,0,0,0,0
2004/4/8 21:45,0,0,0,0
2004/4/8 22:00,0,0,0,0
2004/4/8 22:15,0,0,0,0
2004/4/8 22:30,0,0,0,0
2004/4/8 22:45,0,0,0,0
2004/4/8 23:00,0,0,0,0
2004/4/8 23:15,0,0,0,0
2004/4/8 23:30,0,0,0,0
2004/4/8 23:45,0,0,0,0
2004/4/9 0:00,0,0,0,0
2004/4/9 0:15,0,0,0,0
2004/4/9 0:30,0,0,0,0
2004/4/9 0:45,0,0,0,0
2004/4/9 1:00,0,0,0,0
2004/4/9 1:15,0,0,0,0
2004/4/9 1:30,0,0,0,0
2004/4/9 1:45,0,0,0,0
2004/4/9 2:00,0,0,0,0
2004/4/9 2:15,0,0,0,0
2004/4/9 2:30,0,0,0,0
2004/4/9 2:45,0,0,0,0
2004/4/9 3:00,0,0,0,0
2004/4/9 3:15,0,0,0,0
2004/4/9 3:30,0,0,0,0
2004/4/9 3:45,0,0,0,0
2004/4/9 4:00,0,0,0,0
2004/4/9 4:15,0,0,0,0
2004/4/9 4:30,0,0,0,0
2004/4/9 4:45,0,0,0,0
2004/4/9 5:00,7.75E-05,0,9.49,0
2004/4/9 5:15,8.34E-05,0,10.2,0
2004/4/9 5:30,0.00006162,0,7.54,0
2004/4/9 5:45,5.21E-05,0,6.37,0
2004/4/9 6:00,8.51E-05,0,10.41,0
2004/4/9 6:15,4.90E-05,0,5.99,0
2004/4/9 6:30,0.000021645,0,2.64,0
2004/4/9 6:45,3.59E-05,0,0,0
2004/4/9 7:00,0,0,0,0
2004/4/9 7:15,0,0,0,0
2004/4/9 7:30,0,0,0,0
2004/4/9 7:45,0,0,0,0
2004/4/9 8:00,0,0,0,0
2004/4/9 8:15,0,0,0,0
2004/4/9 8:30,0,0,0,0
2004/4/9 8:45,0,0,0,0
2004/4/9 9:00,0,0,0,0
2004/4/9 9:15,0,0,0,0
2004/4/9 9:30,0,0,0,0
2004/4/9 9:45,0,0,0,0
2004/4/9 10:00,0,0,0,0
2004/4/9 10:15,0,0,0,0
2004/4/9 10:30,0,0,0,0
2004/4/9 10:45,0,0,0,0
2004/4/9 11:00,0,0,0,0
2004/4/9 11:15,0,0,0,0
2004/4/9 11:30,0,0,0,0
2004/4/9 11:45,0,0,0,0
2004/4/9 12:00,0,0,0,0
2004/4/9 12:15,0,0,0,0
2004/4/9 12:30,0,0,0,0
2004/4/9 12:45,0,0,0,0
2004/4/9 13:00,0,0,0,0
2004/4/9 13:15,0,0,0,0
2004/4/9 13:30,0,0,0,0
2004/4/9 13:45,0,0,0,0
2004/4/9 14:00,0,0,0,0
2004/4/9 14:15,0,0,0,0
2004/4/9 14:30,0,0,0,0
2004/4/9 14:45,0,0,0,0
2004/4/9 15:00,0,0,0,0
2004/4/9 15:15,0,0,0,0
2004/4/9 15:30,0,0,0,0
2004/4/9 15:45,0,0,0,0
2004/4/9 16:00,0,0,0,0
2004/4/9 16:15,0,0,0,0
2004/4/9 16:30,0,0,0,0
2004/4/9 16:45,0,0,0,0
2004/4/9 17:00,0,0,0,0
2004/4/9 17:15,0,0,0,0
2004/4/9 17:30,0,0,0,0
2004/4/9 17:45,0,0,0,0
2004/4/9 18:00,0,0,0,0
2004/4/9 18:15,0,0,0,0
2004/4/9 18:30,0,0,0,0
2004/4/9 18:45,0,0,0,0
2004/4/9 19:00,0,0,0,0
2004/4/9 19:15,0,0,0,0
2004/4/9 19:30,0,0,0,0
2004/4/9 19:45,0,0,0,0
2004/4/9 20:00,0,0,0,0
2004/4/9 20:15,0,0,0,0
2004/4/9 20:30,0,0,0,0
2004/4/9 20:45,0,0,0,0
2004/4/9 21:00,0,0,0,0
2004/4/9 21:15,0,0,0,0
2004/4/9 21:30,0,0,0,0
2004/4/9 21:45,0,0,0,0
2004/4/9 22:00,0,0,0,0
2004/4/9 22:15,0,0,0,0
2004/4/9 22:30,0,0,0,0
2004/4/9 22:45,0,0,0,0
2004/4/9 23:00,0,0,0,0
2004/4/9 23:15,0,0,0,0
2004/4/9 23:30,0,0,0,0
2004/4/9 23:45,0,0,0,0
2004/4/10 0:00,0,0,0,0
2004/4/10 0:15,0,0,0,0
2004/4/10 0:30,0,0,0,0
2004/4/10 0:45,0,0,0,0
2004/4/10 1:00,0,0,0,0
2004/4/10 1:15,0,0,0,0
2004/4/10 1:30,0,0,0,0
2004/4/10 1:45,0,0,0,0
2004/4/10 2:00,0,0,0,0
2004/4/10 2:15,0,0,0,0
2004/4/10 2:30,0,0,0,0
2004/4/10 2:45,0,0,0,0
2004/4/10 3:00,0,0,0,0
2004/4/10 3:15,0,0,0,0
2004/4/10 3:30,0,0,0,0
2004/4/10 3:45,0,0,0,0
2004/4/10 4:00,0,0,0,0
2004/4/10 4:15,0,0,0,0
2004/4/10 4:30,0,0,0,0
2004/4/10 4:45,0,0,0,0
2004/4/10 5:00,0,0,0,0
2004/4/10 5:15,0,0,0,0
2004/4/10 5:30,0,0,0,0
2004/4/10 5:45,0,0,0,0
2004/4/10 6:00,0,0,0,0
2004/4/10 6:15,0,0,0,0
2004/4/10 6:30,0,0,0,0
2004/4/10 6:45,0,0,0,0
2004/4/10 7:00,0,0,0,0
2004/4/10 7:15,0,0,0,0
2004/4/10 7:30,0,0,0,0
2004/4/10 7:45,0,0,0,0
2004/4/10 8:00,0,0,0,0
2004/4/10 8:15,0,0,0,0
2004/4/10 8:30,0,0,0,0
2004/4/10 8:45,0,0,0,0
2004/4/10 9:00,5.36E-07,0,0,0
2004/4/10 9:15,0,0,0,0
2004/4/10 9:30,6.34E-07,0,0,0
2004/4/10 9:45,0,0,0,0
2004/4/10 10:00,0,0,0,0
2004/4/10 10:15,0,0,0,0
2004/4/10 10:30,0,0,0,0
2004/4/10 10:45,0,0,0,0
2004/4/10 11:00,0,0,0,0
2004/4/10 11:15,0,0,0,0
2004/4/10 11:30,0,0,0,0
2004/4/10 11:45,1.48E-05,0,1.81,0
2004/4/10 12:00,0.000021645,0,2.65,0
2004/4/10 12:15,0.000021645,0,2.64,0
2004/4/10 12:30,0.000021645,0,2.64,0
2004/4/10 12:45,0.000021645,0,2.64,0
2004/4/10 13:00,0.000021645,0,2.64,0
2004/4/10 13:15,0.000021645,0,2.64,0
2004/4/10 13:30,0.000021645,0,2.64,0
2004/4/10 13:45,0.00004095,0,0.88,0
2004/4/10 14:00,0,0,0,0
2004/4/10 14:15,0,0,0,0
2004/4/10 14:30,0,0,0,0
2004/4/10 14:45,0,0,0,0
2004/4/10 15:00,0,0,0,0
2004/4/10 15:15,0,0,0,0
2004/4/10 15:30,3.11E-05,0,3.8,0
2004/4/10 15:45,0.000021645,0,2.64,0
2004/4/10 16:00,0.000021645,0,2.64,0
2004/4/10 16:15,0.000021645,0,2.64,0
2004/4/10 16:30,0.000021645,0,2.64,0
2004/4/10 16:45,0.000021645,0,2.64,0
2004/4/10 17:00,0.000021645,0,2.64,0
2004/4/10 17:15,2.16E-05,0,2.64,0
2004/4/10 17:30,0.000021645,0,2.64,0
2004/4/10 17:45,0.000021645,0,2.64,0
2004/4/10 18:00,0.000021645,0,2.64,0